TimeCST,TemperatureF,Dew PointF,Humidity,Sea Level PressureIn,VisibilityMPH,Wind Direction,Wind SpeedMPH,Gust SpeedMPH,PrecipitationIn,Events,Conditions,WindDirDegrees,DateUTC
12:54 AM,26.1,21.0,81,30.27,10.0,SSW,6.9,-,N/A,,Clear,200,2012-01-09 06:54:00
1:54 AM,27.0,21.0,78,30.25,10.0,SSW,8.1,-,N/A,,Clear,200,2012-01-09 07:54:00
2:54 AM,27.0,21.0,78,30.24,10.0,SSW,5.8,-,N/A,,Clear,210,2012-01-09 08:54:00
3:54 AM,28.0,21.0,75,30.22,10.0,SSW,8.1,-,N/A,,Clear,210,2012-01-09 09:54:00
4:54 AM,26.1,19.9,78,30.22,10.0,SW,4.6,-,N/A,,Clear,220,2012-01-09 10:54:00
5:54 AM,25.0,19.9,81,30.20,10.0,SSW,6.9,-,N/A,,Clear,200,2012-01-09 11:54:00
6:54 AM,27.0,21.0,78,30.19,10.0,SSW,8.1,-,N/A,,Clear,210,2012-01-09 12:54:00
7:54 AM,28.0,21.9,78,30.18,10.0,SSW,10.4,-,N/A,,Partly Cloudy,210,2012-01-09 13:54:00
8:54 AM,32.0,24.1,73,30.17,10.0,SW,10.4,-,N/A,,Partly Cloudy,220,2012-01-09 14:54:00
9:54 AM,37.4,28.4,70,30.15,10.0,SW,11.5,-,N/A,,Partly Cloudy,230,2012-01-09 15:54:00
10:54 AM,43.0,28.0,56,30.15,10.0,SW,20.7,-,N/A,,Partly Cloudy,230,2012-01-09 16:54:00
11:54 AM,46.9,28.0,48,30.11,10.0,SW,17.3,-,N/A,,Partly Cloudy,230,2012-01-09 17:54:00
12:54 PM,50.0,27.0,41,30.07,10.0,WSW,19.6,-,N/A,,Partly Cloudy,250,2012-01-09 18:54:00
1:54 PM,51.1,27.0,39,30.06,10.0,WSW,17.3,-,N/A,,Partly Cloudy,240,2012-01-09 19:54:00
2:54 PM,53.1,26.1,35,30.05,10.0,WSW,13.8,-,N/A,,Partly Cloudy,250,2012-01-09 20:54:00
3:54 PM,52.0,25.0,35,30.06,10.0,WSW,17.3,21.9,N/A,,Partly Cloudy,250,2012-01-09 21:54:00
4:54 PM,46.0,25.0,44,30.09,10.0,WSW,11.5,-,N/A,,Clear,240,2012-01-09 22:54:00
5:54 PM,42.1,24.1,49,30.10,10.0,SW,10.4,-,N/A,,Clear,230,2012-01-09 23:54:00
6:54 PM,42.1,24.1,49,30.10,10.0,SW,8.1,-,N/A,,Partly Cloudy,230,2012-01-10 00:54:00
7:54 PM,37.0,24.1,59,30.12,10.0,WSW,6.9,-,N/A,,Clear,250,2012-01-10 01:54:00
8:54 PM,39.0,24.1,55,30.10,10.0,WSW,5.8,-,N/A,,Clear,240,2012-01-10 02:54:00
9:54 PM,37.0,24.1,59,30.10,10.0,SW,5.8,-,N/A,,Clear,220,2012-01-10 03:54:00
10:54 PM,37.0,24.1,59,30.08,10.0,WSW,4.6,-,N/A,,Clear,240,2012-01-10 04:54:00
11:54 PM,36.0,23.0,59,30.05,10.0,SW,4.6,-,N/A,,Clear,230,2012-01-10 05:54:00